| time (UTC) | temp C | wind direction | speed KPH | gust KPH | rain 1hr cm | rain 24hr cm | rain mn cm | humidity % | barometer mb |
| 20260506230607 | 14 | 72 | 0.0 | 0.0 | 0.00 | 0.48 | 0.00 | 94 | 1011.6 |
| 20260506225407 | 14 | 61 | 0.0 | 0.0 | 0.00 | 0.48 | 0.00 | 94 | 1011.6 |
| 20260506224808 | 14 | 61 | 0.0 | 0.0 | 0.00 | 0.48 | 0.00 | 94 | 1011.5 |
| 20260506224209 | 14 | 61 | 0.0 | 3.2 | 0.00 | 0.48 | 0.00 | 93 | 1011.5 |
| 20260506223607 | 14 | 61 | 4.8 | 6.4 | 0.00 | 0.48 | 0.00 | 93 | 1011.5 |
| 20260506223007 | 14 | 56 | 0.0 | 0.0 | 0.00 | 0.48 | 0.00 | 93 | 1011.5 |
| 20260506222407 | 14 | 60 | 0.0 | 0.0 | 0.00 | 0.48 | 0.00 | 93 | 1011.5 |
| 20260506221810 | 14 | 56 | 0.0 | 0.0 | 0.00 | 0.48 | 0.00 | 93 | 1011.5 |
| 20260506221207 | 14 | 56 | 0.0 | 0.0 | 0.00 | 0.48 | 0.00 | 93 | 1011.6 |
| 20260506220607 | 14 | 56 | 0.0 | 0.0 | 0.00 | 0.48 | 0.00 | 93 | 1011.5 |
| 20260506215407 | 15 | 65 | 0.0 | 0.0 | 0.00 | 0.48 | 0.48 | 93 | 1011.4 |
| 20260506214807 | 14 | 68 | 0.0 | 3.2 | 0.00 | 0.48 | 0.48 | 93 | 1011.3 |
| 20260506214208 | 15 | 72 | 0.0 | 0.0 | 0.00 | 0.48 | 0.48 | 92 | 1011.3 |
| 20260506213610 | 15 | 72 | 0.0 | 0.0 | 0.00 | 0.48 | 0.48 | 92 | 1011.3 |
| 20260506213007 | 15 | 72 | 0.0 | 0.0 | 0.00 | 0.48 | 0.48 | 92 | 1011.4 |
| 20260506212407 | 15 | 70 | 0.0 | 1.6 | 0.00 | 0.48 | 0.48 | 92 | 1011.4 |
| 20260506211807 | 15 | 70 | 1.6 | 3.2 | 0.00 | 0.48 | 0.48 | 92 | 1011.4 |
| 20260506211207 | 15 | 70 | 1.6 | 3.2 | 0.00 | 0.48 | 0.48 | 92 | 1011.3 |
| 20260506210607 | 15 | 70 | 0.0 | 1.6 | 0.00 | 0.48 | 0.48 | 92 | 1011.3 |
| 20260506205408 | 15 | 70 | 0.0 | 0.0 | 0.00 | 0.48 | 0.48 | 91 | 1011.2 |
| 20260506204807 | 15 | 73 | 3.2 | 4.8 | 0.00 | 0.48 | 0.48 | 91 | 1011.3 |
| 20260506204207 | 15 | 74 | 4.8 | 6.4 | 0.00 | 0.48 | 0.48 | 91 | 1011.4 |
| 20260506203610 | 15 | 69 | 3.2 | 6.4 | 0.00 | 0.48 | 0.48 | 91 | 1011.4 |
| 20260506203009 | 15 | 69 | 0.0 | 1.6 | 0.00 | 0.48 | 0.48 | 92 | 1011.3 |
| 20260506202409 | 15 | 69 | 3.2 | 4.8 | 0.00 | 0.48 | 0.48 | 91 | 1011.3 |
| 20260506201807 | 15 | 77 | 4.8 | 6.4 | 0.00 | 0.48 | 0.48 | 92 | 1011.2 |
| 20260506201208 | 15 | 82 | 3.2 | 6.4 | 0.00 | 0.48 | 0.48 | 92 | 1011.1 |
| 20260506200610 | 15 | 70 | 1.6 | 3.2 | 0.00 | 0.48 | 0.48 | 92 | 1011.1 |
| 20260506195407 | 15 | 30 | 3.2 | 6.4 | 0.00 | 0.48 | 0.48 | 92 | 1010.9 |
| 20260506194807 | 15 | 38 | 3.2 | 3.2 | 0.00 | 0.48 | 0.48 | 92 | 1010.8 |
| 20260506194210 | 15 | 67 | 1.6 | 3.2 | 0.00 | 0.48 | 0.48 | 92 | 1010.8 |
| 20260506193607 | 15 | 67 | 0.0 | 3.2 | 0.00 | 0.48 | 0.48 | 92 | 1010.8 |
| 20260506193009 | 16 | 70 | 0.0 | 3.2 | 0.00 | 0.48 | 0.48 | 92 | 1010.7 |
| 20260506192410 | 16 | 69 | 0.0 | 6.4 | 0.00 | 0.48 | 0.48 | 92 | 1010.8 |
| 20260506191807 | 16 | 70 | 1.6 | 4.8 | 0.00 | 0.48 | 0.48 | 92 | 1010.8 |
| 20260506191207 | 16 | 76 | 3.2 | 6.4 | 0.00 | 0.48 | 0.48 | 92 | 1010.6 |
| 20260506190608 | 16 | 67 | 4.8 | 6.4 | 0.00 | 0.48 | 0.48 | 92 | 1010.7 |
| 20260506185410 | 16 | 68 | 4.8 | 6.4 | 0.00 | 0.48 | 0.48 | 91 | 1010.4 |
| 20260506184807 | 16 | 77 | 3.2 | 3.2 | 0.00 | 0.48 | 0.48 | 91 | 1010.4 |
| 20260506184207 | 16 | 58 | 4.8 | 8.0 | 0.00 | 0.48 | 0.48 | 90 | 1010.4 |
| 20260506183610 | 16 | 64 | 6.4 | 8.0 | 0.00 | 0.48 | 0.48 | 90 | 1010.3 |
| 20260506183008 | 16 | 65 | 8.0 | 9.7 | 0.00 | 0.48 | 0.48 | 90 | 1010.2 |
| 20260506182408 | 16 | 50 | 1.6 | 4.8 | 0.00 | 0.48 | 0.48 | 90 | 1010.2 |
| 20260506181807 | 17 | 62 | 0.0 | 0.0 | 0.00 | 0.48 | 0.48 | 90 | 1010.3 |
| 20260506181207 | 17 | 62 | 0.0 | 3.2 | 0.00 | 0.48 | 0.48 | 90 | 1010.3 |
| 20260506180607 | 17 | 63 | 0.0 | 0.0 | 0.00 | 0.48 | 0.48 | 89 | 1010.2 |
| 20260506175407 | 17 | 63 | 1.6 | 3.2 | 0.00 | 0.48 | 0.48 | 89 | 1010.1 |
| 20260506174807 | 17 | 69 | 0.0 | 3.2 | 0.00 | 0.48 | 0.48 | 89 | 1010.0 |
| 20260506174207 | 17 | 61 | 1.6 | 4.8 | 0.00 | 0.48 | 0.48 | 88 | 1009.9 |
| 20260506173607 | 17 | 77 | 3.2 | 6.4 | 0.00 | 0.48 | 0.48 | 88 | 1009.8 |
| 20260506173007 | 17 | 76 | 4.8 | 6.4 | 0.00 | 0.48 | 0.48 | 87 | 1009.9 |
| 20260506172407 | 17 | 77 | 3.2 | 3.2 | 0.00 | 0.48 | 0.48 | 87 | 1009.9 |
| 20260506171810 | 17 | 76 | 0.0 | 1.6 | 0.00 | 0.48 | 0.48 | 87 | 1009.9 |
| 20260506171207 | 17 | 57 | 1.6 | 3.2 | 0.00 | 0.48 | 0.48 | 87 | 1009.9 |
| 20260506170607 | 17 | 76 | 0.0 | 3.2 | 0.00 | 0.48 | 0.48 | 87 | 1009.7 |
| 20260506165407 | 17 | 76 | 3.2 | 3.2 | 0.00 | 0.48 | 0.48 | 86 | 1009.8 |
| 20260506164810 | 17 | 78 | 3.2 | 4.8 | 0.00 | 0.48 | 0.48 | 86 | 1009.8 |
| 20260506164207 | 17 | 79 | 1.6 | 3.2 | 0.00 | 0.48 | 0.48 | 85 | 1009.7 |
| 20260506163608 | 17 | 79 | 0.0 | 3.2 | 0.00 | 0.48 | 0.48 | 85 | 1009.8 |
| 20260506163010 | 17 | 79 | 4.8 | 6.4 | 0.00 | 0.48 | 0.48 | 85 | 1010.0 |
| 20260506162407 | 17 | 72 | 3.2 | 6.4 | 0.00 | 0.48 | 0.48 | 84 | 1010.0 |
| 20260506161807 | 17 | 62 | 0.0 | 3.2 | 0.00 | 0.48 | 0.48 | 85 | 1010.0 |
| 20260506161212 | 17 | 75 | 1.6 | 6.4 | 0.00 | 0.48 | 0.48 | 87 | 1009.9 |
| 20260506160608 | 17 | 87 | 1.6 | 3.2 | 0.00 | 0.48 | 0.48 | 88 | 1010.0 |
| 20260506155409 | 17 | 76 | 3.2 | 8.0 | 0.00 | 0.48 | 0.48 | 88 | 1010.0 |
| 20260506154807 | 17 | 66 | 4.8 | 4.8 | 0.00 | 0.48 | 0.48 | 88 | 1010.0 |
| 20260506154207 | 17 | 58 | 4.8 | 8.0 | 0.00 | 0.48 | 0.48 | 89 | 1009.8 |
| 20260506153610 | 17 | 76 | 1.6 | 3.2 | 0.00 | 0.48 | 0.48 | 89 | 1009.9 |
| 20260506153007 | 17 | 78 | 0.0 | 1.6 | 0.00 | 0.48 | 0.48 | 89 | 1009.9 |
| 20260506152407 | 17 | 80 | 0.0 | 3.2 | 0.00 | 0.48 | 0.48 | 89 | 1009.9 |
| 20260506151807 | 17 | 98 | 3.2 | 6.4 | 0.00 | 0.48 | 0.48 | 89 | 1009.8 |
| 20260506151207 | 17 | 86 | 3.2 | 8.0 | 0.00 | 0.48 | 0.48 | 89 | 1009.9 |
| 20260506150610 | 17 | 82 | 6.4 | 8.0 | 0.00 | 0.48 | 0.48 | 89 | 1010.0 |
| 20260506145408 | 17 | 62 | 1.6 | 3.2 | 0.00 | 0.48 | 0.48 | 90 | 1010.1 |
| 20260506144807 | 17 | 74 | 3.2 | 4.8 | 0.00 | 0.48 | 0.48 | 91 | 1010.1 |
| 20260506144209 | 17 | 67 | 3.2 | 3.2 | 0.05 | 0.48 | 0.48 | 90 | 1010.1 |
| 20260506143607 | 16 | 66 | 0.0 | 3.2 | 0.05 | 0.48 | 0.48 | 91 | 1010.0 |
| 20260506142407 | 16 | 80 | 3.2 | 4.8 | 0.13 | 0.48 | 0.48 | 92 | 1010.0 |
| 20260506141807 | 16 | 84 | 1.6 | 4.8 | 0.15 | 0.48 | 0.48 | 92 | 1010.0 |
| 20260506141208 | 16 | 62 | 3.2 | 6.4 | 0.15 | 0.48 | 0.48 | 92 | 1010.0 |
| 20260506140610 | 16 | 69 | 3.2 | 6.4 | 0.23 | 0.48 | 0.48 | 93 | 1010.0 |
| 20260506135407 | 16 | 68 | 0.0 | 3.2 | 0.33 | 0.51 | 0.48 | 94 | 1010.2 |
| 20260506134807 | 16 | 67 | 1.6 | 4.8 | 0.33 | 0.51 | 0.48 | 93 | 1010.3 |
| 20260506134214 | 16 | 81 | 4.8 | 6.4 | 0.28 | 0.48 | 0.43 | 93 | 1010.4 |
| 20260506133607 | 16 | 72 | 3.2 | 6.4 | 0.28 | 0.48 | 0.43 | 93 | 1010.5 |
| 20260506132410 | 16 | 85 | 4.8 | 8.0 | 0.20 | 0.41 | 0.36 | 92 | 1010.5 |
| 20260506131812 | 16 | 78 | 4.8 | 6.4 | 0.20 | 0.41 | 0.36 | 91 | 1010.6 |
| 20260506131207 | 16 | 79 | 3.2 | 6.4 | 0.15 | 0.36 | 0.33 | 91 | 1010.6 |
| 20260506130607 | 16 | 79 | 3.2 | 6.4 | 0.08 | 0.28 | 0.23 | 89 | 1010.6 |
| 20260506125407 | 17 | 143 | 1.6 | 3.2 | 0.00 | 0.20 | 0.15 | 87 | 1010.7 |
| 20260506124807 | 17 | 108 | 0.0 | 3.2 | 0.00 | 0.20 | 0.15 | 87 | 1010.6 |
| 20260506124207 | 17 | 80 | 4.8 | 8.0 | 0.00 | 0.20 | 0.15 | 86 | 1010.6 |
| 20260506123609 | 17 | 91 | 3.2 | 6.4 | 0.00 | 0.23 | 0.15 | 84 | 1010.7 |
| 20260506122413 | 17 | 84 | 3.2 | 4.8 | 0.00 | 0.23 | 0.15 | 81 | 1010.8 |
| 20260506121807 | 17 | 88 | 4.8 | 8.0 | 0.00 | 0.23 | 0.15 | 81 | 1010.8 |
| 20260506121208 | 18 | 88 | 3.2 | 3.2 | 0.00 | 0.23 | 0.15 | 81 | 1010.7 |
| 20260506120607 | 17 | 71 | 4.8 | 8.0 | 0.00 | 0.23 | 0.15 | 83 | 1010.8 |
| 20260506115408 | 17 | 69 | 1.6 | 3.2 | 0.00 | 0.23 | 0.15 | 82 | 1011.0 |
| 20260506114807 | 17 | 63 | 4.8 | 8.0 | 0.00 | 0.23 | 0.15 | 84 | 1011.1 |
| 20260506114207 | 17 | 74 | 3.2 | 6.4 | 0.00 | 0.23 | 0.15 | 83 | 1011.1 |
| 20260506113607 | 17 | 70 | 3.2 | 6.4 | 0.00 | 0.23 | 0.15 | 83 | 1011.0 |
| 20260506112407 | 17 | 71 | 3.2 | 6.4 | 0.00 | 0.23 | 0.15 | 83 | 1011.2 |
| 20260506111809 | 17 | 55 | 3.2 | 4.8 | 0.00 | 0.23 | 0.15 | 84 | 1011.4 |
| 20260506111207 | 17 | 92 | 1.6 | 3.2 | 0.00 | 0.23 | 0.15 | 85 | 1011.4 |
| 20260506110607 | 16 | 111 | 1.6 | 3.2 | 0.05 | 0.23 | 0.15 | 85 | 1011.4 |
| 20260506105407 | 16 | 94 | 3.2 | 4.8 | 0.05 | 0.23 | 0.15 | 87 | 1011.5 |
| 20260506104807 | 16 | 85 | 3.2 | 3.2 | 0.05 | 0.23 | 0.15 | 87 | 1011.6 |
| 20260506104207 | 16 | 48 | 3.2 | 4.8 | 0.08 | 0.23 | 0.15 | 87 | 1011.5 |
| 20260506103609 | 16 | 79 | 1.6 | 3.2 | 0.08 | 0.23 | 0.15 | 86 | 1011.7 |
| 20260506102409 | 16 | 71 | 1.6 | 3.2 | 0.08 | 0.23 | 0.15 | 85 | 1011.6 |
| 20260506102328 | 16 | 56 | 0.0 | 3.2 | 0.08 | 0.23 | 0.15 | 89 | 1011.7 |
| 20260506101807 | 16 | 56 | 0.0 | 3.2 | 0.08 | 0.23 | 0.15 | 89 | 1011.7 |
| 20260506101207 | 16 | 73 | 1.6 | 3.2 | 0.08 | 0.23 | 0.15 | 89 | 1011.8 |
| 20260506100607 | 16 | 134 | 0.0 | 3.2 | 0.05 | 0.20 | 0.13 | 89 | 1011.9 |
| 20260506095600 | 17 | 178 | 0.0 | 0.0 | 0.05 | 0.20 | 0.13 | 87 | 1011.7 |
| 20260506095408 | 16 | 174 | 0.0 | 0.0 | 0.05 | 0.20 | 0.13 | 88 | 1011.7 |
| 20260506094807 | 17 | 178 | 0.0 | 0.0 | 0.05 | 0.20 | 0.13 | 87 | 1011.7 |
| 20260506094209 | 17 | 178 | 1.6 | 3.2 | 0.00 | 0.20 | 0.08 | 86 | 1011.7 |
| 20260506093608 | 17 | 178 | 0.0 | 0.0 | 0.00 | 0.20 | 0.08 | 85 | 1011.7 |
| 20260506092409 | 17 | 184 | 3.2 | 3.2 | 0.00 | 0.23 | 0.08 | 79 | 1011.7 |
| 20260506091810 | 17 | 180 | 1.6 | 3.2 | 0.00 | 0.23 | 0.08 | 80 | 1011.7 |
| 20260506091209 | 17 | 190 | 0.0 | 0.0 | 0.00 | 0.23 | 0.08 | 80 | 1011.6 |
| 20260506090607 | 17 | 130 | 1.6 | 3.2 | 0.00 | 0.23 | 0.08 | 80 | 1011.7 |
| 20260506085407 | 18 | 190 | 0.0 | 0.0 | 0.00 | 0.23 | 0.08 | 78 | 1011.4 |
| 20260506084808 | 17 | 190 | 0.0 | 0.0 | 0.00 | 0.23 | 0.08 | 79 | 1011.3 |
| 20260506084208 | 17 | 190 | 0.0 | 0.0 | 0.00 | 0.23 | 0.08 | 82 | 1011.4 |
| 20260506083607 | 17 | 192 | 0.0 | 0.0 | 0.00 | 0.23 | 0.08 | 82 | 1011.3 |
| 20260506082407 | 17 | 246 | 0.0 | 0.0 | 0.00 | 0.23 | 0.08 | 84 | 1011.4 |
| 20260506081807 | 17 | 50 | 1.6 | 3.2 | 0.00 | 0.23 | 0.08 | 87 | 1011.3 |
| 20260506081207 | 17 | 48 | 0.0 | 0.0 | 0.00 | 0.23 | 0.08 | 89 | 1011.2 |
| 20260506080607 | 16 | 48 | 0.0 | 0.0 | 0.00 | 0.23 | 0.08 | 90 | 1011.2 |
| 20260506072407 | 15 | 314 | 0.0 | 0.0 | 0.00 | 0.23 | 0.08 | 93 | 1011.5 |
| 20260506071807 | 15 | 306 | 0.0 | 0.0 | 0.00 | 0.23 | 0.08 | 93 | 1011.5 |
| 20260506071207 | 15 | 306 | 3.2 | 3.2 | 0.00 | 0.23 | 0.08 | 93 | 1011.5 |
| 20260506070608 | 15 | 204 | 0.0 | 0.0 | 0.00 | 0.23 | 0.08 | 94 | 1011.6 |
| 20260506062407 | 14 | 62 | 0.0 | 0.0 | 0.05 | 0.23 | 0.08 | 94 | 1011.4 |
| 20260506061810 | 14 | 62 | 0.0 | 0.0 | 0.05 | 0.23 | 0.08 | 94 | 1011.3 |
| 20260506061207 | 14 | 62 | 3.2 | 3.2 | 0.05 | 0.23 | 0.08 | 95 | 1011.4 |
| 20260506060610 | 14 | 62 | 1.6 | 3.2 | 0.05 | 0.23 | 0.08 | 95 | 1011.3 |
| 20260506051207 | 13 | 77 | 0.0 | 3.2 | 0.05 | 0.20 | 0.05 | 94 | 1011.7 |
| 20260506050607 | 13 | 76 | 0.0 | 3.2 | 0.05 | 0.20 | 0.05 | 94 | 1011.8 |
| 20260506044809 | 13 | 77 | 0.0 | 1.6 | 0.00 | 0.15 | 0.00 | 94 | 1011.7 |
| 20260506044207 | 13 | 72 | 0.0 | 1.6 | 0.00 | 0.15 | 0.00 | 94 | 1011.7 |
| 20260506043607 | 13 | 72 | 0.0 | 3.2 | 0.00 | 0.15 | 0.00 | 94 | 1011.6 |
| 20260506042410 | 13 | 61 | 3.2 | 6.4 | 0.00 | 0.15 | 0.00 | 94 | 1011.3 |
| 20260506041807 | 13 | 65 | 3.2 | 3.2 | 0.00 | 0.15 | 0.00 | 94 | 1011.4 |
| 20260506041207 | 13 | 72 | 0.0 | 1.6 | 0.00 | 0.15 | 0.00 | 94 | 1011.4 |
| 20260506040610 | 13 | 72 | 1.6 | 3.2 | 0.00 | 0.15 | 0.00 | 94 | 1011.4 |
| 20260506035407 | 13 | 73 | 3.2 | 3.2 | 0.00 | 0.15 | 0.00 | 94 | 1011.3 |
| 20260506034809 | 13 | 73 | 1.6 | 4.8 | 0.00 | 0.15 | 0.00 | 94 | 1011.4 |
| 20260506034207 | 13 | 72 | 3.2 | 4.8 | 0.00 | 0.15 | 0.00 | 94 | 1011.5 |
| 20260506033608 | 13 | 74 | 3.2 | 4.8 | 0.00 | 0.15 | 0.00 | 94 | 1011.6 |
| 20260506032407 | 13 | 77 | 0.0 | 1.6 | 0.00 | 0.15 | 0.00 | 94 | 1011.8 |
| 20260506031807 | 13 | 76 | 1.6 | 6.4 | 0.00 | 0.15 | 0.00 | 94 | 1011.8 |
| 20260506031207 | 13 | 72 | 1.6 | 3.2 | 0.00 | 0.15 | 0.00 | 94 | 1011.8 |
| 20260506030607 | 12 | 77 | 3.2 | 4.8 | 0.00 | 0.15 | 0.00 | 94 | 1011.7 |
| 20260506025409 | 12 | 74 | 4.8 | 8.0 | 0.00 | 0.15 | 0.00 | 94 | 1012.0 |
| 20260506024807 | 12 | 66 | 3.2 | 6.4 | 0.00 | 0.15 | 0.00 | 94 | 1012.0 |
| 20260506024207 | 12 | 48 | 0.0 | 4.8 | 0.00 | 0.15 | 0.00 | 94 | 1012.0 |
| 20260506023609 | 12 | 27 | 1.6 | 3.2 | 0.00 | 0.15 | 0.00 | 94 | 1012.0 |
| 20260506022409 | 12 | 22 | 1.6 | 1.6 | 0.00 | 0.15 | 0.00 | 94 | 1012.1 |
| 20260506021808 | 12 | 20 | 1.6 | 4.8 | 0.00 | 0.15 | 0.00 | 94 | 1012.1 |
| 20260506021208 | 12 | 22 | 0.0 | 1.6 | 0.00 | 0.15 | 0.00 | 94 | 1012.1 |
| 20260506020610 | 12 | 23 | 1.6 | 3.2 | 0.00 | 0.15 | 0.00 | 94 | 1012.2 |
| 20260506015407 | 12 | 24 | 0.0 | 1.6 | 0.00 | 0.15 | 0.00 | 94 | 1012.4 |
| 20260506014808 | 12 | 23 | 0.0 | 0.0 | 0.00 | 0.15 | 0.00 | 94 | 1012.5 |
| 20260506014209 | 12 | 23 | 0.0 | 0.0 | 0.00 | 0.15 | 0.00 | 94 | 1012.5 |
| 20260506013607 | 12 | 23 | 1.6 | 3.2 | 0.00 | 0.15 | 0.00 | 94 | 1012.5 |
| 20260506013007 | 12 | 23 | 0.0 | 1.6 | 0.00 | 0.15 | 0.00 | 94 | 1012.6 |
| 20260506012409 | 12 | 23 | 0.0 | 0.0 | 0.00 | 0.15 | 0.00 | 94 | 1012.5 |
| 20260506011807 | 12 | 23 | 0.0 | 0.0 | 0.00 | 0.15 | 0.00 | 94 | 1012.5 |
| 20260506011208 | 12 | 23 | 0.0 | 0.0 | 0.00 | 0.15 | 0.00 | 94 | 1012.6 |
| 20260506010610 | 12 | 23 | 0.0 | 0.0 | 0.00 | 0.15 | 0.00 | 94 | 1012.6 |
| 20260506005407 | 12 | 23 | 1.6 | 3.2 | 0.00 | 0.15 | 0.00 | 94 | 1012.6 |
| 20260506004809 | 12 | 23 | 0.0 | 3.2 | 0.00 | 0.15 | 0.00 | 94 | 1012.6 |
| 20260506004207 | 12 | 23 | 0.0 | 0.0 | 0.00 | 0.15 | 0.00 | 94 | 1012.6 |
| 20260506003607 | 12 | 23 | 0.0 | 1.6 | 0.00 | 0.15 | 0.00 | 94 | 1012.7 |
| 20260506002408 | 12 | 23 | 0.0 | 0.0 | 0.00 | 0.15 | 0.00 | 94 | 1012.8 |
| 20260506001810 | 13 | 23 | 0.0 | 1.6 | 0.00 | 0.15 | 0.00 | 94 | 1012.7 |
| 20260506001207 | 13 | 23 | 0.0 | 0.0 | 0.00 | 0.15 | 0.00 | 94 | 1012.7 |
| 20260506000610 | 13 | 23 | 0.0 | 0.0 | 0.00 | 0.15 | 0.00 | 94 | 1012.6 |
| 20260505235407 | 13 | 23 | 0.0 | 0.0 | 0.00 | 0.15 | 0.00 | 93 | 1012.7 |
| 20260505234807 | 13 | 23 | 0.0 | 3.2 | 0.00 | 0.15 | 0.00 | 93 | 1012.7 |
| 20260505234207 | 13 | 23 | 0.0 | 3.2 | 0.00 | 0.15 | 0.00 | 93 | 1012.7 |
| 20260505233607 | 13 | 33 | 3.2 | 3.2 | 0.00 | 0.15 | 0.00 | 93 | 1012.7 |
| 20260505232407 | 13 | 52 | 1.6 | 3.2 | 0.00 | 0.15 | 0.00 | 93 | 1013.0 |
| 20260505231807 | 13 | 71 | 0.0 | 3.2 | 0.00 | 0.15 | 0.00 | 93 | 1013.1 |
| 20260505231207 | 13 | 71 | 3.2 | 6.4 | 0.00 | 0.15 | 0.00 | 92 | 1013.2 |